Regional Weather Roundup
Issued by NWS Huntsville, AL

Home | Current Version | Previous Version | Text Only | Print | Product List | Glossary On
Versions: 1 2 3 4 5 6 7 8 9 10 11 12 13 14 15 16 17 18 19 20 21 22 23 24 25 26 27 28 29 30 31 32 33 34 35 36 37 38 39 40 41 42 43 44 45 46 47 48 49 50
000
ASUS44 KHUN 011910
RWRHUN

WEATHER ROUNDUP FOR THE TENNESSEE VALLEY
NATIONAL WEATHER SERVICE HUNTSVILLE AL
100 PM CST WED MAR 01 2017

ALZ001>004-012000-
NORTHWEST ALABAMA

CITY           SKY/WX    TMP DP  RH WIND       PRES   REMARKS
COURTLAND HCN    N/A     68 N/A N/A SW20        N/A
RUSSELLVILLE     N/A     72 N/A N/A MISG        N/A
SHOALS AIRPORT   N/A    N/A N/A N/A MISG      29.89F
SHOALS TVA RES   N/A     61 N/A N/A MISG        N/A
$$

ALZ005>007-016-012000-
NORTH CENTRAL ALABAMA

CITY           SKY/WX    TMP DP  RH WIND       PRES   REMARKS
CULLMAN AG STN   N/A     73 N/A N/A SW13        N/A
DECATUR AP     CLOUDY    74  64  71 SW16G24   29.83F
HUNTSVILLE AP  CLOUDY    75  65  70 SW20G32   29.84F
MERIDIANVILLE  MOSUNNY   73  61  64 SW23G30   29.82F
REDSTONE ARSN  PTSUNNY   74  64  70 SW16      29.82F
VINEMONT AP    MOCLDY    73  62  68 SW14G29   29.91F
$$

ALZ008>010-012000-
NORTHEAST ALABAMA

CITY           SKY/WX    TMP DP  RH WIND       PRES   REMARKS
ALBERTVILLE    PTSUNNY   72  68  88 SW16G24   29.89F
FORT PAYNE     CLOUDY    70  59  68 SW14G20   29.88F
SCOTTSBORO AP  PTSUNNY   73  63  68 SW14G31   29.85F
SCOTTSBORO HCN   N/A     73 N/A N/A MISG        N/A
VALLEY HEAD      N/A     68 N/A N/A MISG        N/A
$$

TNZ076-096-097-012000-
SOUTHEASTERN MIDDLE TENNESSEE

CITY           SKY/WX    TMP DP  RH WIND       PRES   REMARKS
TULLAHOMA        N/A     57  55  94 SW10      29.87R
WINCHESTER     CLOUDY    72  61  68 W10G25    29.84F
$$

...SURROUNDING SITES...

CITY           SKY/WX    TMP DP  RH WIND       PRES   REMARKS
ATLANTA        CLOUDY    77  58  51 SW12G28   29.95F
ANNISTON       PTSUNNY   78  60  53 SW22G33   29.92F
BIRMINGHAM     CLOUDY    77  61  57 SW18G29   29.94F
CHATTANOOGA    CLOUDY    73  62  68 S15G24    29.85F
CORINTH        PTSUNNY   70  50  49 NW18G25   29.89S
DALTON         CLOUDY    72  63  73 S9G16     29.88F
GADSDEN        CLOUDY    77  63  61 SW22G29   29.90F
GOLDEN TRNGL   PTSUNNY   79  63  57 SW16      29.87F
HALEYVILLE     TSTM      66  61  82 W21G39    29.91F
JACKSON TN     CLOUDY    64  48  56 NW18G26   29.92R
MEMPHIS        MOSUNNY   65  46  50 NW16G28   29.98R
NASHVILLE      PTSUNNY   67  55  65 W13G20    29.81S
OXFORD MS      FAIR      68  45  42 NW18G26   29.96S
ROME           CLOUDY    76  61  59 SW15G23   29.88F
SAVANNAH       CLOUDY    68  55  64 VRB6G16   29.87F
TUPELO         PTSUNNY   68  55  63 W15       29.90S
TUSCALOOSA     CLOUDY    78  63  59 S14       29.93F
$$

...GULF COAST WEATHER...

CITY           SKY/WX    TMP DP  RH WIND       PRES   REMARKS
GULFPORT       CLOUDY    79  70  74 SW12      30.03F
PASCAGOULA     CLOUDY    76  69  79 SW8       30.05F
MOBILE         CLOUDY    78  67  68 SW15G24   30.05F
GULF SHORES    CLOUDY    75  73  94 SW8G17    30.07F
PENSACOLA      CLOUDY    76  70  82 SW13G24   30.06F
PANAMA CITY    PTSUNNY   75  70  84 S12       30.08F
APPALACHICOLA  CLOUDY    75  71  87 SW10      30.10F
$$




USA.gov is the U.S. government's official web portal to all federal, state and local government web resources and services.